Flag for Germany Weather past 2 weeks in Bayreuth, Bavaria, Germany

Now
57 °F

Refreshingly cool.


Feels Like: 57 °F
Forecast: 45 / 67 °F
Wind: No wind

Location: Grafenwoehr

Current Time: May 28, 2015 at 10:51:51 PM

Latest Report: May 28, 2015 at 9:58 PM


Visibility: N/A

Pressure: 29.95 "Hg

Humidity: 59%

Dew point: 43 °F

Location of BayreuthLocation

Historic Weather in Bayreuth — Graph

°F

Bayreuth temperature yesterday

Maximum temperature yesterday: 53 °F (at 4:58 PM)
Minimum temperature yesterday: 43 °F (at 11:58 PM)
Average temperature yesterday: 48 °F

Past Weeks' High & Low Weather Summary

 TemperatureHumidityPressure
High72 °F (May 18, 4:58 PM)100% (May 18, 7:03 AM)30.33 "Hg (May 18, 7:03 AM)
Low34 °F (May 22, 5:58 AM)28% (May 22, 2:58 PM)29.70 "Hg (May 19, 2:58 AM)
Average54 °F67%30.03 "Hg
* Reported May 13 8:58 PM — May 28 8:58 PM, Bayreuth, Weather by CustomWeather, © 2015

Note: Actual official high and low records may vary slightly from our data, if they occured in-between our weather recording intervals... More about our weather records

Advertising

Bayreuth weather history for previous 24 hours

 ConditionsComfort  
Time TempWeatherWind HumidityBarometerVisibility
8:58 PM
Thu, May 28
63 °FOvercast.2 mph45%29.94 "HgN/A
7:58 PM64 °FOvercast.5 mph40%29.94 "HgN/A
6:58 PM66 °FPassing clouds.6 mph37%29.95 "HgN/A
5:58 PM66 °FPartly sunny.5 mph37%29.94 "HgN/A
3:58 PM66 °FMild.3 mph35%29.99 "HgN/A
2:58 PM64 °FSunny.No wind37%30.02 "HgN/A
1:58 PM61 °FScattered clouds.3 mph45%30.03 "HgN/A
12:58 PM59 °FBroken clouds.5 mph48%30.05 "HgN/A
11:58 AM57 °FOvercast.5 mph53%30.07 "HgN/A
10:58 AM54 °FPartly sunny.3 mph53%30.10 "HgN/A
9:58 AM53 °FPassing clouds.5 mph57%30.10 "HgN/A
8:58 AM46 °FPartly sunny.1 mph82%30.12 "HgN/A
7:58 AM45 °FOvercast.2 mph81%30.12 "HgN/A
6:58 AM41 °FOvercast.1 mph93%30.13 "HgN/A
5:58 AM37 °FOvercast.No wind93%30.14 "HgN/A
4:58 AM36 °FOvercast.No wind94%30.14 "HgN/A
3:58 AM37 °FPassing clouds.No wind93%30.14 "HgN/A
2:58 AM37 °FPassing clouds.2 mph93%30.15 "HgN/A
1:58 AM41 °FPassing clouds.No wind87%30.17 "HgN/A
12:58 AM42 °FOvercast.No wind88%30.17 "HgN/A
11:58 PM
Wed, May 27
43 °FOvercast.No wind85%30.19 "HgN/A
10:58 PM46 °FOvercast.No wind78%30.18 "HgN/A
Weather by CustomWeather, © 2015

See weather overviewHow to use our weather pages